Vertical_Velocity
-4 -3 -5 -4 -5 -4 -5 -4 -6 -5 -5 -2 -1 -2 -2 0 -0 -3 -1 6 1 4 -3 1 4 2 -2 1 -1 2 -5 17 2 11 8 15 -5 0 2 -0 1 -2 0
-5 -4 -3 -3 -4 -4 -3 -2 -4 -4 -3 -5 -5 -1 -2 -1 2 -4 -0 -3 0 1 5 -4 6 2 -0 0 2 3 2 -0 -7 8 18 1 13 10 3 -5 -1 -4 2
-3 -4 -4 -3 -4 -4 -4 -4 -3 -4 -3 -3 -6 -4 -0 -0 -4 0 -4 -0 -3 1 1 -3 6 2 4 3 1 -0 2 4 -17 16 11 8 4 18 6 1 -7 -6 -0
-1 -3 -4 -5 -4 -3 -2 -2 -2 -3 -3 -2 -2 -3 -4 -2 -1 -2 -4 -3 -1 0 1 -3 -2 -2 4 6 -2 -1 6 2 3 -17 11 -3 5 13 12 9 -3 -6 2
1 -2 -3 -5 -4 -4 -3 -2 -2 -3 -2 -2 -1 -2 -3 -5 0 -1 -4 -3 -2 -1 1 0 -2 -2 1 1 -3 4 3 -4 -3 1 -1 22 7 -5 0 8 9 14 4
-1 -1 -4 -5 -3 -5 -3 -2 -2 -2 -2 -3 -1 -1 2 -2 -0 -1 -2 -3 -5 -5 -2 -1 -2 -3 -0 1 2 7 5 -2 -1 -4 10 -18 0 -7 11 8 9 -1 -28
-1 -2 -3 -5 -2 -4 -3 -2 -1 -1 -1 -1 -0 -1 1 1 1 0 1 -6 -3 -7 -4 1 2 -0 1 0 3 2 1 -3 -2 9 -4 -15 5 1 10 6 -3 -7 3
0 -0 -3 -4 -2 -2 -1 -2 -2 -3 -2 -1 1 -0 -1 3 0 2 1 -5 -6 -3 -4 0 -3 6 -0 2 6 -3 1 -1 -9 -2 -5 12 -8 14 -5 7 10 13 17
-0 -1 -2 -6 -0 -1 1 0 -1 -1 -0 -3 -4 -0 -3 4 -2 1 0 -1 -2 -1 -1 -3 -2 1 9 -9 -9 -3 -3 -7 3 -0 -4 6 -13 3 6 2 -7 7 10
-1 -0 -3 -3 -2 0 0 -0 2 -2 3 -2 3 -4 -1 3 1 1 -0 -1 -5 -6 -2 3 1 -6 4 9 -12 -2 -14 -1 4 1 -2 -2 4 -2 4 -4 8 12 18
-1 -2 -1 -2 -1 -3 3 -2 0 1 2 1 1 1 -1 -4 4 1 1 -4 -2 -1 -3 0 -3 -2 0 1 -6 -8 -25 42 7 -5 -6 -6 -3 -1 -1 -3 -0 10 -10
-1 -2 -1 -0 -2 -1 1 1 -1 -2 2 0 1 4 -1 0 -1 2 0 -2 -0 -11 -1 -1 -3 -0 -4 -4 -7 -10 2 14 -5 -10 -8 -9 -7 -6 -4 -5 -3 1 2
-0 -1 -1 1 -1 -2 0 0 2 -3 -1 2 1 4 6 0 0 -2 1 1 2 -9 -4 -3 -4 -3 -6 -6 -8 -7 8 -17 -2 -9 -11 -7 -12 4 15 6 1 4 3
1 0 -0 0 1 -2 -1 -2 0 -3 -0 -0 2 2 3 5 1 1 2 -0 1 -2 -4 -8 -7 -4 -7 -7 -7 -3 -11 -4 -10 -8 -14 1 12 -1 -7 4 -1 5 -3
-0 -1 0 -0 -0 1 -1 -1 1 -3 -5 -0 3 -0 2 8 6 3 2 6 3 3 -12 -11 -6 -4 -3 -4 -6 -7 0 7 -13 -8 -10 -1 -6 1 -15 8 2 3 -5
2 0 -1 0 -0 -1 0 5 -5 -2 0 -3 -5 -7 2 -7 -4 -3 -4 0 2 -0 -6 -6 -0 -3 -2 4 -4 -3 -4 4 -3 -1 -2 4 -3 -6 -6 6 4 -3 5
0 1 1 -0 -0 0 -1 -2 6 5 -5 -3 -2 -2 -3 -3 -2 -2 -2 -5 0 -1 -3 1 1 1 1 1 0 1 -6 -4 11 7 6 8 7 -5 5 0 1 6 0
-1 -1 1 1 -1 -0 -1 -0 -1 2 8 10 6 1 5 4 2 -0 -1 -1 1 7 -5 -0 -1 3 2 1 4 3 4 0 -2 -1 5 3 7 -5 -2 -12 -1 -6 2
-2 -0 0 1 0 -1 0 -0 -1 -0 2 2 7 5 -1 1 1 1 -2 -3 -3 2 3 -1 2 3 4 2 -0 -1 4 2 2 2 2 5 11 -1 -3 -11 6 4 5
-0 -1 0 1 1 -1 -0 0 -0 -0 1 -0 -1 1 7 5 7 8 2 1 1 1 2 1 -0 6 4 1 4 4 -0 5 6 -5 -3 6 10 1 -3 -8 1 9 -0
-1 -0 -1 0 0 -1 0 -0 -0 0 1 1 -0 1 0 -1 2 -0 -0 3 2 2 3 0 -2 -1 2 7 4 3 2 3 2 2 5 4 12 -6 1 0 11 17 13
-1 -1 -1 0 -1 -1 -0 -0 -0 0 0 3 -0 -0 2 0 1 3 2 3 3 1 3 2 2 -3 1 -0 4 5 1 -2 -0 5 7 4 5 4 -2 4 11 15 -3
-1 -1 -1 0 0 -1 -0 -0 0 0 -0 3 1 0 3 2 2 3 2 4 3 6 4 2 1 3 6 4 0 4 2 2 4 6 5 -0 -2 2 5 16 13 12 3
-1 -1 -2 -0 -1 0 0 -1 0 1 -1 2 2 -1 3 2 3 2 2 5 5 7 2 5 7 10 9 4 5 5 4 5 -0 2 13 11 9 -1 15 21 14 2 8
-0 -1 -2 -0 -0 0 -0 -0 0 -1 -1 1 3 -0 2 2 3 2 3 5 5 6 3 4 5 7 0 6 19 5 29 14 1 -1 5 2 9 9 -1 0 4 7 3
1 -0 -2 -0 -1 -0 -1 -1 0 -0 -0 0 2 2 1 2 3 4 2 3 4 5 6 4 6 4 7 6 13 9 -1 2 12 1 -4 8 2 1 2 -3 -3 2 3
Height
5435 5431 5429 5426 5425 5424 5424 5423 5424 5425 5427 5432 5439 5446 5457 5470 5484 5497 5511 5524 5537 5553 5567 5579 5591 5602 5615 5626 5633 5641 5648 5657 5665 5673 5678 5683 5687 5696 5703 5710 5715 5720 5727
5419 5416 5412 5409 5407 5405 5403 5402 5401 5403 5404 5407 5412 5419 5426 5434 5447 5463 5478 5491 5505 5521 5537 5551 5566 5576 5590 5603 5612 5621 5629 5638 5649 5657 5663 5668 5674 5680 5686 5694 5702 5707 5713
5405 5402 5399 5396 5393 5390 5387 5385 5383 5382 5383 5384 5386 5393 5400 5406 5414 5428 5443 5459 5474 5489 5505 5522 5537 5550 5565 5579 5589 5599 5608 5619 5631 5639 5647 5651 5657 5664 5670 5678 5685 5693 5699
5393 5390 5387 5384 5381 5377 5374 5371 5368 5366 5365 5364 5365 5368 5374 5381 5389 5397 5409 5425 5440 5456 5473 5491 5507 5523 5539 5552 5565 5577 5587 5596 5610 5622 5629 5634 5641 5648 5655 5663 5670 5678 5687
5381 5378 5375 5372 5368 5364 5360 5357 5355 5352 5349 5348 5348 5348 5350 5356 5365 5372 5378 5391 5406 5423 5440 5459 5478 5495 5511 5526 5540 5554 5563 5576 5588 5599 5612 5619 5624 5633 5643 5652 5659 5665 5670
5370 5367 5362 5359 5355 5351 5347 5344 5341 5338 5336 5334 5333 5333 5334 5336 5340 5347 5353 5362 5374 5389 5408 5428 5447 5465 5483 5498 5515 5529 5539 5552 5566 5578 5592 5596 5611 5620 5627 5636 5643 5646 5655
5357 5354 5350 5346 5343 5338 5334 5331 5328 5326 5323 5320 5319 5319 5320 5321 5321 5325 5330 5335 5345 5360 5377 5397 5416 5436 5453 5471 5487 5499 5513 5527 5543 5559 5568 5581 5593 5608 5616 5621 5627 5635 5642
5344 5340 5336 5332 5330 5326 5322 5319 5317 5314 5311 5309 5308 5306 5306 5307 5307 5308 5309 5313 5322 5336 5350 5365 5383 5404 5423 5441 5456 5471 5488 5502 5520 5536 5549 5568 5577 5590 5598 5606 5615 5622 5628
5329 5326 5322 5318 5316 5313 5311 5309 5306 5303 5301 5298 5296 5294 5293 5294 5292 5293 5293 5295 5302 5313 5324 5335 5350 5368 5392 5410 5426 5442 5460 5480 5498 5511 5526 5542 5556 5568 5579 5587 5597 5603 5607
5316 5313 5309 5305 5303 5301 5299 5298 5296 5293 5291 5288 5286 5282 5281 5281 5279 5279 5278 5279 5285 5293 5301 5310 5322 5340 5359 5376 5391 5413 5431 5463 5473 5486 5501 5517 5533 5546 5559 5567 5578 5585 5593
5304 5301 5297 5293 5291 5289 5289 5287 5286 5284 5281 5278 5276 5273 5270 5268 5267 5266 5265 5265 5268 5271 5276 5287 5297 5310 5325 5340 5357 5378 5409 5437 5443 5456 5472 5490 5506 5520 5534 5547 5558 5566 5577
5292 5289 5285 5282 5280 5278 5278 5278 5276 5273 5271 5269 5266 5263 5260 5257 5256 5254 5253 5253 5252 5252 5259 5265 5273 5282 5292 5307 5322 5349 5379 5393 5408 5428 5445 5463 5481 5497 5515 5529 5540 5552 5563
5280 5277 5274 5272 5270 5268 5268 5268 5267 5263 5261 5259 5256 5254 5251 5248 5245 5243 5242 5240 5239 5237 5239 5243 5247 5255 5265 5274 5290 5315 5340 5357 5380 5398 5418 5440 5461 5483 5496 5508 5522 5533 5543
5269 5266 5263 5262 5261 5259 5259 5258 5258 5255 5253 5250 5247 5244 5241 5239 5235 5232 5230 5227 5226 5224 5222 5222 5226 5231 5239 5249 5262 5282 5303 5327 5348 5373 5399 5427 5443 5454 5470 5488 5503 5516 5525
5256 5254 5253 5251 5251 5251 5250 5250 5249 5247 5243 5240 5237 5234 5230 5228 5225 5220 5218 5216 5213 5210 5204 5203 5206 5208 5214 5224 5238 5256 5275 5296 5318 5349 5376 5399 5417 5434 5450 5470 5485 5496 5508
5245 5244 5242 5242 5241 5241 5242 5242 5240 5239 5237 5233 5229 5224 5221 5216 5212 5208 5205 5201 5198 5191 5187 5185 5185 5186 5192 5200 5211 5230 5246 5265 5291 5322 5349 5374 5394 5411 5432 5450 5465 5478 5493
5234 5234 5233 5232 5232 5232 5232 5233 5235 5233 5228 5226 5223 5220 5214 5209 5204 5198 5192 5186 5180 5174 5170 5169 5168 5170 5173 5178 5187 5202 5219 5240 5269 5292 5320 5348 5371 5391 5410 5429 5446 5461 5475
5224 5224 5223 5223 5223 5224 5224 5224 5225 5226 5226 5223 5217 5213 5210 5204 5198 5192 5186 5179 5170 5165 5159 5158 5157 5159 5160 5163 5169 5179 5196 5215 5234 5262 5290 5320 5345 5367 5387 5407 5428 5444 5457
5214 5214 5214 5215 5215 5216 5216 5216 5217 5217 5217 5216 5214 5210 5204 5200 5194 5188 5180 5171 5162 5156 5153 5151 5151 5150 5149 5150 5155 5162 5174 5192 5213 5235 5262 5291 5318 5341 5364 5388 5410 5427 5439
5205 5205 5206 5207 5207 5208 5208 5209 5209 5209 5210 5209 5206 5204 5201 5196 5191 5185 5177 5169 5159 5151 5148 5147 5145 5144 5143 5140 5142 5149 5158 5171 5187 5206 5235 5266 5292 5318 5344 5366 5389 5406 5420
5196 5196 5197 5198 5199 5200 5201 5202 5202 5202 5203 5202 5200 5197 5193 5189 5184 5178 5172 5165 5156 5148 5144 5143 5140 5137 5136 5136 5135 5138 5145 5158 5174 5195 5219 5246 5274 5300 5326 5349 5370 5388 5401
5186 5187 5189 5190 5191 5192 5194 5195 5196 5196 5196 5197 5195 5192 5189 5185 5180 5175 5170 5164 5156 5147 5143 5140 5137 5134 5132 5130 5131 5133 5139 5150 5165 5185 5207 5230 5257 5284 5306 5331 5349 5367 5381
5177 5178 5180 5182 5184 5185 5187 5188 5189 5190 5190 5191 5190 5189 5187 5183 5179 5174 5169 5164 5158 5151 5144 5140 5136 5133 5132 5131 5130 5133 5138 5149 5164 5182 5200 5221 5244 5268 5294 5317 5335 5351 5366
5167 5169 5171 5174 5176 5178 5180 5181 5183 5184 5185 5185 5186 5185 5183 5181 5177 5173 5169 5164 5159 5155 5149 5143 5140 5138 5137 5137 5138 5139 5146 5155 5165 5180 5196 5216 5237 5260 5283 5303 5321 5335 5354
5158 5160 5163 5166 5168 5171 5173 5175 5176 5178 5179 5180 5181 5181 5181 5179 5176 5172 5169 5165 5162 5159 5155 5149 5146 5145 5146 5146 5148 5153 5156 5165 5171 5181 5197 5214 5234 5254 5275 5294 5311 5327 5343
5148 5150 5153 5157 5160 5164 5166 5168 5170 5172 5174 5175 5176 5178 5178 5177 5176 5173 5171 5167 5164 5162 5160 5155 5151 5151 5151 5153 5155 5161 5166 5168 5177 5188 5202 5219 5235 5254 5271 5289 5304 5320 5334